Weather History for KW99 - April, 2013

Change the Weather History Date:

Saturday, April 6, 2013

  Actual Average (KEKN) Record (KEKN)
Temperature  
Mean Temperature 46 °F 47 °F  
Max Temperature 63 °F 60 °F 86 °F (2010)
Min Temperature 28 °F 34 °F 18 °F (1982)
Degree Days  
Heating Degree Days 20 18  
Month to date heating degree days 115  
Since 1 July heating degree days 5216  
Cooling Degree Days 0 0  
Month to date cooling degree days 0  
Year to date cooling degree days 0  
Moisture  
Dew Point 20 °F    
Average Humidity 39    
Maximum Humidity 78    
Minimum Humidity 14    
Precipitation  
Precipitation 0.00 in 0.12 in 1.17 in (1926)
Month to date precipitation 0.76  
Year to date precipitation 11.05  
Snow  
Snow 0.00 in - - ()
Month to date snowfall  
Since 1 September snowfall  
Snow Depth -    
Sea Level Pressure  
Sea Level Pressure 30.21 in    
Wind  
Wind Speed 3 mph (ENE)    
Max Wind Speed 12 mph    
Max Gust Speed -    
Visibility 10 miles    
Events      
T = Trace of Precipitation, MM = Missing Value Source: NWS Daily Summary

Daily Weather History Graph

Daily Weather History Graph

Search for Another Location

Airport or City:

Trip Planner

Search our weather history database for the weather conditions in past years. The results will help you decide how hot, cold, wet, or windy it might be!

Date:

Astronomy

Apr. 06, 2013 Rise Set
Actual Time 6:53 AM EDT 7:45 PM EDT
Civil Twilight 6:25 AM EDT 8:12 PM EDT
Nautical Twilight 5:53 AM EDT 8:44 PM EDT
Astronomical Twilight 5:20 AM EDT 9:18 PM EDT
Moon 4:33 AM EDT (4/6) 4:13 PM EDT (4/6)
Length of Visible Light 13h 46m
Length of Day
12h 52m
Waning Crescent, 15% of the Moon is Illuminated
Apr 6
Waning Crescent
Apr 10
New
Apr 18
First Quarter
Apr 25
Full
May 2
Last Quarter

Hourly Weather History & Observations

Time (EDT) Temp. Windchill Dew Point Humidity Pressure Visibility Wind Dir Wind Speed Gust Speed Precip Events Conditions
12:15 AM 45.5 °F 43.2 °F 23.9 °F 43% 30.12 in 10.0 mi NNW 4.6 mph - N/A   Clear
12:35 AM 43.7 °F - 24.1 °F 46% 30.13 in 10.0 mi Calm Calm - N/A   Clear
12:55 AM 44.2 °F 41.8 °F 23.5 °F 44% 30.14 in 10.0 mi NE 4.6 mph - N/A   Clear
1:15 AM 43.3 °F 41.7 °F 24.8 °F 48% 30.15 in 10.0 mi NNE 3.5 mph - N/A   Clear
1:35 AM 42.3 °F 38.6 °F 22.3 °F 45% 30.16 in 10.0 mi NNE 5.8 mph - N/A   Clear
1:55 AM 41.2 °F 37.3 °F 20.3 °F 43% 30.16 in 10.0 mi NNE 5.8 mph - N/A   Clear
2:15 AM 40.3 °F 35.5 °F 18.0 °F 41% 30.16 in 10.0 mi North 6.9 mph - N/A   Clear
2:35 AM 39.7 °F 34.3 °F 16.9 °F 40% 30.16 in 10.0 mi North 8.1 mph - N/A   Clear
2:55 AM 38.8 °F 33.2 °F 17.6 °F 42% 30.17 in 10.0 mi NNE 8.1 mph - N/A   Clear
3:15 AM 37.9 °F 32.1 °F 17.6 °F 44% 30.18 in 10.0 mi NNE 8.1 mph - N/A   Clear
3:35 AM 38.3 °F 33.2 °F 17.4 °F 43% 30.18 in 10.0 mi NNE 6.9 mph - N/A   Clear
3:55 AM 38.3 °F 33.9 °F 16.3 °F 41% 30.18 in 10.0 mi North 5.8 mph - N/A   Clear
4:15 AM 33.8 °F - 20.1 °F 57% 30.19 in 10.0 mi Calm Calm - N/A   Clear
4:35 AM 33.4 °F 30.4 °F 21.9 °F 63% 30.19 in 10.0 mi West 3.5 mph - N/A   Clear
4:55 AM 31.8 °F - 21.4 °F 65% 30.21 in 10.0 mi Calm Calm - N/A   Clear
5:15 AM 32.5 °F 28.1 °F 21.7 °F 64% 30.22 in 10.0 mi WNW 4.6 mph - N/A   Clear
5:35 AM 31.1 °F - 22.1 °F 69% 30.22 in 10.0 mi Calm Calm - N/A   Clear
5:55 AM 31.1 °F - 23.0 °F 72% 30.23 in 10.0 mi Calm Calm - N/A   Clear
6:15 AM 28.8 °F 25.0 °F 21.4 °F 74% 30.24 in 10.0 mi WNW 3.5 mph - N/A   Clear
6:35 AM 28.0 °F - 21.9 °F 78% 30.25 in 10.0 mi Calm Calm - N/A   Clear
6:55 AM 28.0 °F - 21.4 °F 76% 30.26 in 10.0 mi Calm Calm - N/A   Clear
7:15 AM 28.6 °F - 21.7 °F 76% 30.27 in 10.0 mi Calm Calm - N/A   Clear
7:35 AM 28.2 °F - 21.4 °F 76% 30.29 in 10.0 mi Calm Calm - N/A   Clear
7:55 AM 29.8 °F - 23.7 °F 78% 30.30 in 10.0 mi Calm Calm - N/A   Clear
8:15 AM 32.0 °F - 23.9 °F 72% 30.31 in 10.0 mi Calm Calm - N/A   Clear
8:35 AM 33.8 °F - 24.1 °F 68% 30.31 in 10.0 mi Calm Calm - N/A   Clear
8:55 AM 36.0 °F - 24.3 °F 63% 30.32 in 10.0 mi Calm Calm - N/A   Clear
9:15 AM 38.5 °F - 24.4 °F 57% 30.32 in 10.0 mi Calm Calm - N/A   Clear
9:35 AM 41.0 °F - 24.1 °F 51% 30.32 in 10.0 mi Calm Calm - N/A   Clear
9:55 AM 42.3 °F - 20.8 °F 43% 30.32 in 10.0 mi Calm Calm - N/A   Clear
10:15 AM 43.9 °F 41.3 °F 18.9 °F 37% 30.32 in 10.0 mi East 4.6 mph - N/A   Clear
10:35 AM 45.5 °F 44.2 °F 14.9 °F 29% 30.32 in 10.0 mi East 3.5 mph - N/A   Clear
10:55 AM 46.6 °F - 9.9 °F 23% 30.31 in 10.0 mi Calm Calm - N/A   Clear
11:15 AM 46.8 °F - 13.3 °F 26% 30.30 in 10.0 mi Calm Calm - N/A   Clear
11:35 AM 48.9 °F - 14.0 °F 25% 30.30 in 10.0 mi Calm Calm - N/A   Clear
11:55 AM 51.3 °F - 15.1 °F 24% 30.29 in 10.0 mi Calm Calm - N/A   Clear
12:15 PM 50.4 °F - 15.1 °F 25% 30.29 in 10.0 mi Calm Calm - N/A   Clear
12:35 PM 50.2 °F - 11.1 °F 21% 30.28 in 10.0 mi SW 3.5 mph - N/A   Clear
12:55 PM 51.3 °F - 12.7 °F 22% 30.28 in 10.0 mi Calm Calm - N/A   Clear
1:15 PM 53.6 °F - 16.0 °F 23% 30.27 in 10.0 mi East 3.5 mph - N/A   Clear
1:35 PM 54.1 °F - 12.4 °F 19% 30.25 in 10.0 mi Calm Calm - N/A   Clear
1:55 PM 55.0 °F - 12.7 °F 19% 30.25 in 10.0 mi Calm Calm - N/A   Clear
2:15 PM 55.2 °F - 11.3 °F 17% 30.23 in 10.0 mi Calm Calm - N/A   Clear
2:35 PM 58.5 °F - 15.1 °F 18% 30.22 in 10.0 mi East 4.6 mph - N/A   Clear
2:55 PM 59.5 °F - 13.1 °F 16% 30.21 in 10.0 mi East 3.5 mph - N/A   Clear
3:15 PM 61.5 °F - 14.7 °F 16% 30.19 in 10.0 mi ESE 8.1 mph - N/A   Clear
3:35 PM 62.1 °F - 14.0 °F 15% 30.18 in 10.0 mi Calm Calm - N/A   Clear
3:55 PM 62.6 °F - 14.4 °F 15% 30.17 in 10.0 mi Calm Calm - N/A   Clear
4:15 PM 63.0 °F - 13.1 °F 14% 30.16 in 10.0 mi East 3.5 mph - N/A   Clear
4:35 PM 63.5 °F - 14.9 °F 15% 30.16 in 10.0 mi SSE 4.6 mph - N/A   Clear
4:55 PM 63.3 °F - 14.5 °F 15% 30.15 in 10.0 mi East 8.1 mph - N/A   Clear
5:15 PM 63.3 °F - 14.9 °F 15% 30.15 in 10.0 mi East 8.1 mph - N/A   Clear
5:35 PM 63.0 °F - 17.8 °F 17% 30.15 in 10.0 mi SE 11.5 mph - N/A   Clear
5:55 PM 62.6 °F - 19.0 °F 19% 30.15 in 10.0 mi SE 10.4 mph - N/A   Clear
6:15 PM 61.7 °F - 19.8 °F 20% 30.15 in 10.0 mi SE 11.5 mph - N/A   Clear
6:35 PM 60.1 °F - 21.0 °F 22% 30.15 in 10.0 mi SE 9.2 mph - N/A   Clear
6:55 PM 59.0 °F - 20.1 °F 22% 30.16 in 10.0 mi Calm Calm - N/A   Clear
7:15 PM 58.3 °F - 19.6 °F 22% 30.16 in 10.0 mi Calm Calm - N/A   Clear
7:35 PM 57.2 °F - 19.0 °F 23% 30.16 in 10.0 mi Calm Calm - N/A   Clear
7:55 PM 56.5 °F - 19.4 °F 24% 30.16 in 10.0 mi Calm Calm - N/A   Clear
8:15 PM 55.8 °F - 19.2 °F 24% 30.16 in 10.0 mi Calm Calm - N/A   Clear
8:35 PM 54.7 °F - 19.6 °F 25% 30.16 in 10.0 mi Calm Calm - N/A   Clear
8:55 PM 53.8 °F - 21.2 °F 28% 30.17 in 10.0 mi Calm Calm - N/A   Clear
9:15 PM 48.6 °F - 25.5 °F 41% 30.17 in 10.0 mi Calm Calm - N/A   Clear
9:35 PM 51.8 °F - 22.6 °F 32% 30.17 in 10.0 mi Calm Calm - N/A   Clear
9:55 PM 50.9 °F - 23.7 °F 35% 30.17 in 10.0 mi Calm Calm - N/A   Clear
10:15 PM 49.5 °F - 25.2 °F 39% 30.17 in 10.0 mi Calm Calm - N/A   Clear
10:35 PM 50.7 °F - 27.0 °F 40% 30.18 in 10.0 mi Calm Calm - N/A   Clear
10:55 PM 50.4 °F - 25.3 °F 38% 30.18 in 10.0 mi Calm Calm - N/A   Clear
11:15 PM 49.5 °F - 25.9 °F 40% 30.18 in 10.0 mi Calm Calm - N/A   Clear
11:35 PM 48.0 °F - 30.2 °F 50% 30.18 in 10.0 mi Calm Calm - N/A   Clear
11:55 PM 48.7 °F - 31.3 °F 51% 30.17 in 10.0 mi Calm Calm - N/A   Clear